TimeCDT,TemperatureF,Dew PointF,Humidity,Sea Level PressureIn,VisibilityMPH,Wind Direction,Wind SpeedMPH,Gust SpeedMPH,PrecipitationIn,Events,Conditions,WindDirDegrees,DateUTC
12:15 AM,57.2,55.4,94,29.85,10.0,Calm,Calm,-,N/A,,Clear,0,2013-09-22 05:15:00
12:35 AM,55.4,55.4,100,29.85,10.0,Calm,Calm,-,N/A,,Clear,0,2013-09-22 05:35:00
12:55 AM,55.4,55.4,100,29.86,10.0,Calm,Calm,-,N/A,,Clear,0,2013-09-22 05:55:00
1:15 AM,55.4,55.4,100,29.86,10.0,Calm,Calm,-,N/A,,Clear,0,2013-09-22 06:15:00
1:35 AM,55.4,55.4,100,29.86,10.0,Calm,Calm,-,N/A,,Clear,0,2013-09-22 06:35:00
1:55 AM,55.4,55.4,100,29.86,10.0,Calm,Calm,-,N/A,,Clear,0,2013-09-22 06:55:00
2:15 AM,55.4,53.6,94,29.85,10.0,Calm,Calm,-,N/A,,Clear,0,2013-09-22 07:15:00
2:35 AM,53.6,53.6,100,29.85,7.0,Calm,Calm,-,N/A,,Clear,0,2013-09-22 07:35:00
2:55 AM,53.6,53.6,100,29.85,8.0,Calm,Calm,-,N/A,,Clear,0,2013-09-22 07:55:00
3:15 AM,53.6,53.6,100,29.85,10.0,Calm,Calm,-,N/A,,Clear,0,2013-09-22 08:15:00
3:35 AM,53.6,53.6,100,29.85,9.0,Calm,Calm,-,N/A,,Clear,0,2013-09-22 08:35:00
3:55 AM,53.6,53.6,100,29.85,8.0,Calm,Calm,-,N/A,,Clear,0,2013-09-22 08:55:00
4:15 AM,53.6,53.6,100,29.86,8.0,Calm,Calm,-,N/A,,Clear,0,2013-09-22 09:15:00
4:35 AM,53.6,51.8,94,29.86,8.0,Calm,Calm,-,N/A,,Clear,0,2013-09-22 09:35:00
4:55 AM,51.8,51.8,100,29.86,9.0,Calm,Calm,-,N/A,,Clear,0,2013-09-22 09:55:00
5:15 AM,51.8,50.0,94,29.86,10.0,Calm,Calm,-,N/A,,Clear,0,2013-09-22 10:15:00
5:35 AM,51.8,50.0,94,29.87,10.0,Calm,Calm,-,N/A,,Clear,0,2013-09-22 10:35:00
5:55 AM,51.8,50.0,94,29.87,5.0,Calm,Calm,-,N/A,,Clear,0,2013-09-22 10:55:00
6:15 AM,50.0,50.0,100,29.87,6.0,Calm,Calm,-,N/A,,Clear,0,2013-09-22 11:15:00
6:35 AM,50.0,50.0,100,29.88,8.0,Calm,Calm,-,N/A,,Clear,0,2013-09-22 11:35:00
6:55 AM,50.0,50.0,100,29.88,5.0,Calm,Calm,-,N/A,,Clear,0,2013-09-22 11:55:00
7:15 AM,53.6,53.6,100,29.89,9.0,Calm,Calm,-,N/A,,Clear,0,2013-09-22 12:15:00
7:35 AM,55.4,53.6,94,29.89,8.0,ENE,5.8,-,N/A,,Clear,60,2013-09-22 12:35:00
7:55 AM,57.2,53.6,88,29.90,10.0,ENE,3.5,-,N/A,,Clear,60,2013-09-22 12:55:00
8:15 AM,59.0,55.4,88,29.90,10.0,ENE,3.5,-,N/A,,Clear,60,2013-09-22 13:15:00
8:35 AM,59.0,55.4,88,29.90,10.0,ENE,5.8,-,N/A,,Clear,70,2013-09-22 13:35:00
8:55 AM,60.8,55.4,82,29.91,10.0,NE,4.6,-,N/A,,Clear,50,2013-09-22 13:55:00
9:15 AM,62.6,55.4,77,29.91,10.0,NE,5.8,-,N/A,,Clear,50,2013-09-22 14:15:00
9:35 AM,64.4,55.4,73,29.91,10.0,NE,6.9,-,N/A,,Clear,50,2013-09-22 14:35:00
9:55 AM,66.2,53.6,64,29.91,10.0,NE,12.7,-,N/A,,Clear,40,2013-09-22 14:55:00
10:15 AM,66.2,53.6,64,29.91,10.0,NE,13.8,-,N/A,,Clear,50,2013-09-22 15:15:00
10:35 AM,68.0,53.6,60,29.91,10.0,NE,12.7,19.6,N/A,,Clear,40,2013-09-22 15:35:00
10:55 AM,69.8,53.6,56,29.91,10.0,NE,12.7,18.4,N/A,,Clear,50,2013-09-22 15:55:00
11:15 AM,71.6,53.6,53,29.91,10.0,NE,12.7,20.7,N/A,,Clear,40,2013-09-22 16:15:00
11:35 AM,71.6,53.6,53,29.90,10.0,ENE,8.1,17.3,N/A,,Clear,70,2013-09-22 16:35:00
11:55 AM,73.4,53.6,50,29.90,10.0,NNE,11.5,19.6,N/A,,Clear,30,2013-09-22 16:55:00
12:15 PM,73.4,53.6,50,29.90,10.0,ENE,10.4,19.6,N/A,,Clear,60,2013-09-22 17:15:00
12:35 PM,73.4,53.6,50,29.90,10.0,ENE,9.2,-,N/A,,Clear,60,2013-09-22 17:35:00
12:55 PM,73.4,53.6,50,29.89,10.0,NE,6.9,16.1,N/A,,Clear,50,2013-09-22 17:55:00
1:15 PM,75.2,51.8,44,29.89,10.0,NE,11.5,-,N/A,,Clear,40,2013-09-22 18:15:00
1:35 PM,75.2,53.6,47,29.88,10.0,ENE,8.1,-,N/A,,Clear,60,2013-09-22 18:35:00
1:55 PM,75.2,51.8,44,29.88,10.0,NNE,9.2,16.1,N/A,,Clear,20,2013-09-22 18:55:00
2:15 PM,77.0,50.0,39,29.87,10.0,NNE,9.2,-,N/A,,Clear,30,2013-09-22 19:15:00
2:35 PM,77.0,50.0,39,29.87,10.0,East,4.6,16.1,N/A,,Clear,80,2013-09-22 19:35:00
2:55 PM,77.0,50.0,39,29.87,10.0,NNE,10.4,17.3,N/A,,Clear,20,2013-09-22 19:55:00
3:15 PM,77.0,51.8,41,29.87,10.0,ENE,8.1,-,N/A,,Clear,70,2013-09-22 20:15:00
3:35 PM,77.0,48.2,36,29.86,10.0,NNE,8.1,-,N/A,,Clear,30,2013-09-22 20:35:00
3:55 PM,77.0,50.0,39,29.86,10.0,NE,8.1,-,N/A,,Clear,50,2013-09-22 20:55:00
4:15 PM,77.0,51.8,41,29.86,10.0,NE,5.8,-,N/A,Rain,Light Rain,40,2013-09-22 21:15:00
4:35 PM,77.0,51.8,41,29.85,10.0,NNE,5.8,-,N/A,,Clear,30,2013-09-22 21:35:00
4:55 PM,77.0,53.6,44,29.85,10.0,NNE,5.8,-,N/A,,Clear,30,2013-09-22 21:55:00
5:15 PM,77.0,53.6,44,29.85,10.0,NE,4.6,-,N/A,,Clear,40,2013-09-22 22:15:00
5:35 PM,75.2,53.6,47,29.85,10.0,East,4.6,-,N/A,,Clear,80,2013-09-22 22:35:00
5:55 PM,75.2,55.4,50,29.86,10.0,ENE,4.6,-,N/A,,Clear,70,2013-09-22 22:55:00
6:15 PM,71.6,59.0,64,29.86,10.0,Calm,Calm,-,N/A,,Clear,0,2013-09-22 23:15:00
6:35 PM,68.0,59.0,73,29.87,10.0,Calm,Calm,-,N/A,,Clear,0,2013-09-22 23:35:00
6:55 PM,66.2,59.0,78,29.86,10.0,Calm,Calm,-,N/A,,Clear,0,2013-09-22 23:55:00
7:15 PM,64.4,59.0,83,29.87,10.0,Calm,Calm,-,N/A,,Clear,0,2013-09-23 00:15:00
7:35 PM,64.4,59.0,83,29.88,10.0,Calm,Calm,-,N/A,,Clear,0,2013-09-23 00:35:00
7:55 PM,64.4,59.0,83,29.89,10.0,Calm,Calm,-,N/A,,Clear,0,2013-09-23 00:55:00
8:15 PM,64.4,59.0,83,29.90,10.0,Calm,Calm,-,N/A,,Clear,0,2013-09-23 01:15:00
8:35 PM,62.6,59.0,88,29.90,10.0,Calm,Calm,-,N/A,,Clear,0,2013-09-23 01:35:00
8:55 PM,62.6,59.0,88,29.91,10.0,Calm,Calm,-,N/A,,Clear,0,2013-09-23 01:55:00
9:15 PM,60.8,59.0,94,29.91,10.0,Calm,Calm,-,N/A,,Clear,0,2013-09-23 02:15:00
9:35 PM,60.8,57.2,88,29.92,10.0,Calm,Calm,-,N/A,,Clear,0,2013-09-23 02:35:00
9:55 PM,59.0,57.2,94,29.92,10.0,Calm,Calm,-,N/A,,Clear,0,2013-09-23 02:55:00
10:15 PM,59.0,57.2,94,29.92,10.0,Calm,Calm,-,N/A,,Clear,0,2013-09-23 03:15:00
10:35 PM,59.0,57.2,94,29.93,10.0,Calm,Calm,-,N/A,,Clear,0,2013-09-23 03:35:00
10:55 PM,59.0,57.2,94,29.93,10.0,Calm,Calm,-,N/A,,Clear,0,2013-09-23 03:55:00
11:15 PM,57.2,55.4,94,29.93,10.0,Calm,Calm,-,N/A,,Clear,0,2013-09-23 04:15:00
11:35 PM,57.2,55.4,94,29.93,10.0,Calm,Calm,-,N/A,,Clear,0,2013-09-23 04:35:00
11:55 PM,57.2,55.4,94,29.93,10.0,Calm,Calm,-,N/A,,Clear,0,2013-09-23 04:55:00